Home   Weather   Columbus   Past weeks
Flag for USA

Past Weather in Columbus, Ohio, USA — Yesterday and Last 2 Weeks

Now
44 °F

Light rain. Overcast.


Feels Like: 42 °F
Forecast: 47 / 31 °F
Wind: 5 mph from Northeast

Location: John Glenn Columbus International Airport

Current Time: Mar 25, 2019 at 8:18:25 am

Latest Report: Mar 25, 2019 at 6:51 am


Visibility: 8 mi

Pressure: 30.02 "Hg

Humidity: 93%

Dew Point: 42 °F

Location of ColumbusLocation

Past Weather in Columbus — Graph

°F

Columbus Temperature Yesterday

Maximum temperature yesterday: 60 °F (at 2:51 pm)
Minimum temperature yesterday: 31 °F (at 2:51 am)
Average temperature yesterday: 45 °F

High & Low Weather Summary for the Past Weeks

 TemperatureHumidityPressure
High74 °F (Mar 14, 2:51 pm)97% (Mar 25, 1:51 am)30.50 "Hg (Mar 25, 1:51 am)
Low24 °F (Mar 17, 7:51 am)18% (Mar 23, 5:51 pm)29.59 "Hg (Mar 14, 5:51 pm)
Average42 °F65%30.13 "Hg
* Reported Mar 10 6:51 am — Mar 25 6:51 am, Columbus. Weather by CustomWeather, © 2019

Note: Actual official high and low records may vary slightly from our data, if they occured in-between our weather recording intervals... More about our weather records

Advertising

Columbus Weather History for the Previous 24 Hours

Scroll right to see more
 ConditionsComfort  
Time TempWeatherWind HumidityBarometerVisibility
6:51 am
Mon, Mar 25
44 °FLight rain. Overcast.5 mph93%30.02 "Hg8 mi
5:51 am45 °FLight rain. Overcast.5 mph86%30.03 "Hg9 mi
4:51 am45 °FLight rain. Mostly cloudy.6 mph86%30.03 "Hg10 mi
4:28 am45 °FMostly cloudy.9 mph90%30.02 "Hg10 mi
3:51 am45 °FLow clouds.6 mph93%30.04 "Hg8 mi
2:51 am45 °FLow clouds.6 mph97%30.05 "Hg8 mi
1:51 am45 °FFog.8 mph97%30.06 "Hg6 mi
1:36 am46 °FFog.8 mph93%30.06 "Hg6 mi
1:07 am46 °FMostly cloudy.9 mph93%30.07 "Hg7 mi
12:51 am46 °FMostly cloudy.5 mph93%30.07 "Hg8 mi
11:51 pm
Sun, Mar 24
46 °FMostly cloudy.5 mph93%30.07 "Hg7 mi
10:51 pm46 °FLight rain. Fog.6 mph93%30.08 "Hg3 mi
10:21 pm48 °FOvercast.5 mph80%30.07 "Hg7 mi
8:51 pm47 °FLight rain. Mostly cloudy.3 mph86%30.08 "Hg10 mi
7:51 pm52 °FLight rain. Overcast.5 mph59%30.10 "Hg10 mi
6:51 pm55 °FOvercast.8 mph35%30.11 "Hg10 mi
5:51 pm58 °FOvercast.8 mph23%30.10 "Hg10 mi
4:51 pm59 °FMostly cloudy.9 mph22%30.11 "Hg10 mi
3:51 pm60 °FBroken clouds.13 mph21%30.10 "Hg10 mi
2:51 pm60 °FPartly sunny.8 mph21%30.11 "Hg10 mi
1:51 pm58 °FScattered clouds.8 mph23%30.14 "Hg10 mi
12:51 pm56 °FPartly sunny.8 mph27%30.18 "Hg10 mi
11:51 am51 °FPartly sunny.8 mph29%30.21 "Hg10 mi
10:51 am48 °FPartly sunny.6 mph33%30.22 "Hg10 mi
9:51 am44 °FPartly sunny.3 mph43%30.22 "Hg10 mi
8:51 am38 °FPassing clouds.No wind63%30.23 "Hg10 mi
Weather by CustomWeather, © 2019

See weather overview